owner,sensor,date,latitude,longitude,vertical_datum,mass_concentration_of_oxygen_in_sea_water,qcFlag 
DISL,ioos:station:DISL:DISL:1,2008-10-01T00:00:00Z,30.2513,-88.0778,7.33,7.2,1111122 
DISL,ioos:station:DISL:DISL:1,2008-10-01T00:30:00Z,30.2513,-88.0778,7.38,6.44,1111122 
DISL,ioos:station:DISL:DISL:1,2008-10-01T01:00:00Z,30.2513,-88.0778,7.48,6.17,1111122 
DISL,ioos:station:DISL:DISL:1,2008-10-01T01:30:00Z,30.2513,-88.0778,7.5,6.4,1111122 
DISL,ioos:station:DISL:DISL:1,2008-10-01T02:00:00Z,30.2513,-88.0778,7.52,6.09,1111122 
DISL,ioos:station:DISL:DISL:1,2008-10-01T02:30:00Z,30.2513,-88.0778,7.55,6.61,1111122 
DISL,ioos:station:DISL:DISL:1,2008-10-01T03:00:00Z,30.2513,-88.0778,7.53,6.92,1111122 
DISL,ioos:station:DISL:DISL:1,2008-10-01T03:30:00Z,30.2513,-88.0778,7.56,6.87,1111122 
DISL,ioos:station:DISL:DISL:1,2008-10-01T04:00:00Z,30.2513,-88.0778,7.51,6.78,1111122 
DISL,ioos:station:DISL:DISL:1,2008-10-01T04:30:00Z,30.2513,-88.0778,7.52,6.88,1111122 
DISL,ioos:station:DISL:DISL:1,2008-10-01T05:00:00Z,30.2513,-88.0778,7.55,6.85,1111122 
DISL,ioos:station:DISL:DISL:1,2008-10-01T05:30:00Z,30.2513,-88.0778,7.47,6.83,1111122 
DISL,ioos:station:DISL:DISL:1,2008-10-01T06:00:00Z,30.2513,-88.0778,7.4,6.81,1111122 
DISL,ioos:station:DISL:DISL:1,2008-10-01T06:30:00Z,30.2513,-88.0778,7.34,6.79,1111122 
DISL,ioos:station:DISL:DISL:1,2008-10-01T07:00:00Z,30.2513,-88.0778,7.29,6.86,1111122 
DISL,ioos:station:DISL:DISL:1,2008-10-01T07:30:00Z,30.2513,-88.0778,7.09,6.61,1111122 
DISL,ioos:station:DISL:DISL:1,2008-10-01T08:00:00Z,30.2513,-88.0778,6.992,6.55,1111122 
DISL,ioos:station:DISL:DISL:1,2008-10-01T08:30:00Z,30.2513,-88.0778,6.801,6.4,1111122 
DISL,ioos:station:DISL:DISL:1,2008-10-01T09:00:00Z,30.2513,-88.0778,6.72,6.47,1111122 
DISL,ioos:station:DISL:DISL:1,2008-10-01T09:30:00Z,30.2513,-88.0778,6.705,6.42,1111122 
DISL,ioos:station:DISL:DISL:1,2008-10-01T10:00:00Z,30.2513,-88.0778,6.373,6.5,1111122 
DISL,ioos:station:DISL:DISL:1,2008-10-01T10:30:00Z,30.2513,-88.0778,6.552,6.52,1111122 
DISL,ioos:station:DISL:DISL:1,2008-10-01T11:00:00Z,30.2513,-88.0778,6.509,6.5,1111122 
DISL,ioos:station:DISL:DISL:1,2008-10-01T11:30:00Z,30.2513,-88.0778,6.311,6.47,1111122 
DISL,ioos:station:DISL:DISL:1,2008-10-01T12:00:00Z,30.2513,-88.0778,6.313,6.43,1111122 
DISL,ioos:station:DISL:DISL:1,2008-10-01T12:30:00Z,30.2513,-88.0778,6.229,6.43,1111122 
DISL,ioos:station:DISL:DISL:1,2008-10-01T13:00:00Z,30.2513,-88.0778,6.292,6.39,1111122 
DISL,ioos:station:DISL:DISL:1,2008-10-01T13:30:00Z,30.2513,-88.0778,6.155,6.41,1111122 
DISL,ioos:station:DISL:DISL:1,2008-10-01T14:00:00Z,30.2513,-88.0778,6.157,6.48,1111122 
DISL,ioos:station:DISL:DISL:1,2008-10-01T14:30:00Z,30.2513,-88.0778,6.085,6.53,1111122 
DISL,ioos:station:DISL:DISL:1,2008-10-01T15:00:00Z,30.2513,-88.0778,6.167,6.58,1111122 
DISL,ioos:station:DISL:DISL:1,2008-10-01T15:30:00Z,30.2513,-88.0778,6.127,6.62,1111122 
DISL,ioos:station:DISL:DISL:1,2008-10-01T16:00:00Z,30.2513,-88.0778,6.209,6.64,1111122 
DISL,ioos:station:DISL:DISL:1,2008-10-01T16:30:00Z,30.2513,-88.0778,6.264,6.55,1111122 
DISL,ioos:station:DISL:DISL:1,2008-10-01T17:00:00Z,30.2513,-88.0778,6.336,6.27,1111122 
DISL,ioos:station:DISL:DISL:1,2008-10-01T17:30:00Z,30.2513,-88.0778,6.362,6.61,1111122 
DISL,ioos:station:DISL:DISL:1,2008-10-01T18:00:00Z,30.2513,-88.0778,6.456,6.45,1111122 
DISL,ioos:station:DISL:DISL:1,2008-10-01T18:30:00Z,30.2513,-88.0778,6.473,6.63,1111122 
DISL,ioos:station:DISL:DISL:1,2008-10-01T19:00:00Z,30.2513,-88.0778,6.555,7.0,1111122 
DISL,ioos:station:DISL:DISL:1,2008-10-01T19:30:00Z,30.2513,-88.0778,6.597,7.52,1111122 
DISL,ioos:station:DISL:DISL:1,2008-10-01T20:00:00Z,30.2513,-88.0778,6.639,7.49,1111122 
DISL,ioos:station:DISL:DISL:1,2008-10-01T20:30:00Z,30.2513,-88.0778,6.669,7.54,1111122 
DISL,ioos:station:DISL:DISL:1,2008-10-01T21:00:00Z,30.2513,-88.0778,6.722,7.49,1111122 
DISL,ioos:station:DISL:DISL:1,2008-10-01T21:30:00Z,30.2513,-88.0778,6.791,7.63,1111122 
DISL,ioos:station:DISL:DISL:1,2008-10-01T22:00:00Z,30.2513,-88.0778,6.797,7.62,1111122 
DISL,ioos:station:DISL:DISL:1,2008-10-01T22:30:00Z,30.2513,-88.0778,6.859,7.49,1111122 
DISL,ioos:station:DISL:DISL:1,2008-10-01T23:00:00Z,30.2513,-88.0778,6.9,6.15,1111122 
DISL,ioos:station:DISL:DISL:1,2008-10-01T23:30:00Z,30.2513,-88.0778,6.963,6.15,1111122 
DISL,ioos:station:DISL:DISL:1,2008-10-02T00:00:00Z,30.2513,-88.0778,7.02,5.76,1111122 
DISL,ioos:station:DISL:DISL:1,2008-10-02T00:30:00Z,30.2513,-88.0778,7.06,5.85,1111122 
DISL,ioos:station:DISL:DISL:1,2008-10-02T01:00:00Z,30.2513,-88.0778,7.11,6.52,1111122 
DISL,ioos:station:DISL:DISL:1,2008-10-02T01:30:00Z,30.2513,-88.0778,7.13,6.18,1111122 
DISL,ioos:station:DISL:DISL:1,2008-10-02T02:00:00Z,30.2513,-88.0778,7.15,6.5,1111122 
DISL,ioos:station:DISL:DISL:1,2008-10-02T02:30:00Z,30.2513,-88.0778,7.19,6.14,1111122 
DISL,ioos:station:DISL:DISL:1,2008-10-02T03:00:00Z,30.2513,-88.0778,7.23,6.11,1111122 
DISL,ioos:station:DISL:DISL:1,2008-10-02T03:30:00Z,30.2513,-88.0778,7.25,6.13,1111122 
DISL,ioos:station:DISL:DISL:1,2008-10-02T04:00:00Z,30.2513,-88.0778,7.24,6.6,1111122 
DISL,ioos:station:DISL:DISL:1,2008-10-02T04:30:00Z,30.2513,-88.0778,7.27,6.62,1111122 
DISL,ioos:station:DISL:DISL:1,2008-10-02T05:00:00Z,30.2513,-88.0778,7.28,6.83,1111122 
DISL,ioos:station:DISL:DISL:1,2008-10-02T05:30:00Z,30.2513,-88.0778,7.28,6.83,1111122 
DISL,ioos:station:DISL:DISL:1,2008-10-02T06:00:00Z,30.2513,-88.0778,7.29,6.8,1111122 
DISL,ioos:station:DISL:DISL:1,2008-10-02T06:30:00Z,30.2513,-88.0778,7.17,6.77,1111122 
DISL,ioos:station:DISL:DISL:1,2008-10-02T07:00:00Z,30.2513,-88.0778,7.02,6.76,1111122 
DISL,ioos:station:DISL:DISL:1,2008-10-02T07:30:00Z,30.2513,-88.0778,7.03,6.74,1111122 
DISL,ioos:station:DISL:DISL:1,2008-10-02T08:00:00Z,30.2513,-88.0778,6.935,6.88,1111122 
DISL,ioos:station:DISL:DISL:1,2008-10-02T08:30:00Z,30.2513,-88.0778,6.814,6.99,1111122 
DISL,ioos:station:DISL:DISL:1,2008-10-02T09:00:00Z,30.2513,-88.0778,6.683,6.97,1111122 
DISL,ioos:station:DISL:DISL:1,2008-10-02T09:30:00Z,30.2513,-88.0778,6.652,6.9,1111122 
DISL,ioos:station:DISL:DISL:1,2008-10-02T10:00:00Z,30.2513,-88.0778,6.56,6.87,1111122 
DISL,ioos:station:DISL:DISL:1,2008-10-02T10:30:00Z,30.2513,-88.0778,6.518,6.84,1111122 
DISL,ioos:station:DISL:DISL:1,2008-10-02T11:00:00Z,30.2513,-88.0778,6.587,6.71,1111122 
DISL,ioos:station:DISL:DISL:1,2008-10-02T11:30:00Z,30.2513,-88.0778,6.322,6.61,1111122 
DISL,ioos:station:DISL:DISL:1,2008-10-02T12:00:00Z,30.2513,-88.0778,6.243,6.6,1111122 
DISL,ioos:station:DISL:DISL:1,2008-10-02T12:30:00Z,30.2513,-88.0778,6.169,6.65,1111122 
DISL,ioos:station:DISL:DISL:1,2008-10-02T13:00:00Z,30.2513,-88.0778,6.103,6.64,1111122 
DISL,ioos:station:DISL:DISL:1,2008-10-02T13:30:00Z,30.2513,-88.0778,6.071,6.62,1111122 
DISL,ioos:station:DISL:DISL:1,2008-10-02T14:00:00Z,30.2513,-88.0778,6.156,6.67,1111122 
DISL,ioos:station:DISL:DISL:1,2008-10-02T14:30:00Z,30.2513,-88.0778,5.984,6.75,1111122 
DISL,ioos:station:DISL:DISL:1,2008-10-02T15:00:00Z,30.2513,-88.0778,5.978,6.89,1111122 
DISL,ioos:station:DISL:DISL:1,2008-10-02T15:30:00Z,30.2513,-88.0778,6.003,6.94,1111122 
DISL,ioos:station:DISL:DISL:1,2008-10-02T16:00:00Z,30.2513,-88.0778,5.925,6.85,1111122 
DISL,ioos:station:DISL:DISL:1,2008-10-02T16:30:00Z,30.2513,-88.0778,5.956,6.84,1111122 
DISL,ioos:station:DISL:DISL:1,2008-10-02T17:00:00Z,30.2513,-88.0778,6.013,6.66,1111122 
DISL,ioos:station:DISL:DISL:1,2008-10-02T17:30:00Z,30.2513,-88.0778,6.036,5.92,1111122 
DISL,ioos:station:DISL:DISL:1,2008-10-02T18:00:00Z,30.2513,-88.0778,6.052,6.01,1111122 
DISL,ioos:station:DISL:DISL:1,2008-10-02T18:30:00Z,30.2513,-88.0778,6.077,5.82,1111122 
DISL,ioos:station:DISL:DISL:1,2008-10-02T19:00:00Z,30.2513,-88.0778,6.141,5.39,1111122 
DISL,ioos:station:DISL:DISL:1,2008-10-02T19:30:00Z,30.2513,-88.0778,6.158,6.02,1111122 
DISL,ioos:station:DISL:DISL:1,2008-10-02T20:00:00Z,30.2513,-88.0778,6.181,6.47,1111122 
DISL,ioos:station:DISL:DISL:1,2008-10-02T20:30:00Z,30.2513,-88.0778,6.29,6.98,1111122 
DISL,ioos:station:DISL:DISL:1,2008-10-02T21:00:00Z,30.2513,-88.0778,6.329,6.93,1111122 
DISL,ioos:station:DISL:DISL:1,2008-10-02T21:30:00Z,30.2513,-88.0778,6.391,6.93,1111122 
DISL,ioos:station:DISL:DISL:1,2008-10-02T22:00:00Z,30.2513,-88.0778,6.453,7.0,1111122 
DISL,ioos:station:DISL:DISL:1,2008-10-02T22:30:00Z,30.2513,-88.0778,6.558,6.98,1111122 
DISL,ioos:station:DISL:DISL:1,2008-10-02T23:00:00Z,30.2513,-88.0778,6.611,7.2,1111122 
DISL,ioos:station:DISL:DISL:1,2008-10-02T23:30:00Z,30.2513,-88.0778,6.646,7.1,1111122 
DISL,ioos:station:DISL:DISL:1,2008-10-03T00:00:00Z,30.2513,-88.0778,6.746,7.41,1111122 
DISL,ioos:station:DISL:DISL:1,2008-10-03T00:30:00Z,30.2513,-88.0778,6.835,7.14,1111122 
DISL,ioos:station:DISL:DISL:1,2008-10-03T01:00:00Z,30.2513,-88.0778,6.906,7.3,1111122 
DISL,ioos:station:DISL:DISL:1,2008-10-03T01:30:00Z,30.2513,-88.0778,6.998,7.13,1111122 
DISL,ioos:station:DISL:DISL:1,2008-10-03T02:00:00Z,30.2513,-88.0778,7.08,7.12,1111122 
DISL,ioos:station:DISL:DISL:1,2008-10-03T02:30:00Z,30.2513,-88.0778,7.17,7.07,1111122 
DISL,ioos:station:DISL:DISL:1,2008-10-03T03:00:00Z,30.2513,-88.0778,7.19,7.02,1111122 
DISL,ioos:station:DISL:DISL:1,2008-10-03T03:30:00Z,30.2513,-88.0778,7.26,7.12,1111122 
DISL,ioos:station:DISL:DISL:1,2008-10-03T04:00:00Z,30.2513,-88.0778,7.3,7.11,1111122 
DISL,ioos:station:DISL:DISL:1,2008-10-03T04:30:00Z,30.2513,-88.0778,7.3,7.07,1111122 
DISL,ioos:station:DISL:DISL:1,2008-10-03T05:00:00Z,30.2513,-88.0778,7.3,7.02,1111122 
DISL,ioos:station:DISL:DISL:1,2008-10-03T05:30:00Z,30.2513,-88.0778,7.31,7.04,1111122 
DISL,ioos:station:DISL:DISL:1,2008-10-03T06:00:00Z,30.2513,-88.0778,7.31,6.9,1111122 
DISL,ioos:station:DISL:DISL:1,2008-10-03T06:30:00Z,30.2513,-88.0778,7.28,6.93,1111122 
DISL,ioos:station:DISL:DISL:1,2008-10-03T07:00:00Z,30.2513,-88.0778,7.22,6.86,1111122 
DISL,ioos:station:DISL:DISL:1,2008-10-03T07:30:00Z,30.2513,-88.0778,7.16,6.86,1111122 
DISL,ioos:station:DISL:DISL:1,2008-10-03T08:00:00Z,30.2513,-88.0778,7.09,6.82,1111122 
DISL,ioos:station:DISL:DISL:1,2008-10-03T08:30:00Z,30.2513,-88.0778,7.01,6.67,1111122 
DISL,ioos:station:DISL:DISL:1,2008-10-03T09:00:00Z,30.2513,-88.0778,6.919,6.68,1111122 
DISL,ioos:station:DISL:DISL:1,2008-10-03T09:30:00Z,30.2513,-88.0778,6.827,6.6,1111122 
DISL,ioos:station:DISL:DISL:1,2008-10-03T10:00:00Z,30.2513,-88.0778,6.739,6.48,1111122 
DISL,ioos:station:DISL:DISL:1,2008-10-03T10:30:00Z,30.2513,-88.0778,6.663,6.37,1111122 
DISL,ioos:station:DISL:DISL:1,2008-10-03T11:00:00Z,30.2513,-88.0778,6.564,5.99,1111122 
DISL,ioos:station:DISL:DISL:1,2008-10-03T11:30:00Z,30.2513,-88.0778,6.517,7.09,1111122 
DISL,ioos:station:DISL:DISL:1,2008-10-03T12:00:00Z,30.2513,-88.0778,6.429,6.68,1111122 
DISL,ioos:station:DISL:DISL:1,2008-10-03T12:30:00Z,30.2513,-88.0778,6.35,5.87,1111122 
DISL,ioos:station:DISL:DISL:1,2008-10-03T13:00:00Z,30.2513,-88.0778,6.283,5.96,1111122 
DISL,ioos:station:DISL:DISL:1,2008-10-03T13:30:00Z,30.2513,-88.0778,6.231,5.84,1111122 
DISL,ioos:station:DISL:DISL:1,2008-10-03T14:00:00Z,30.2513,-88.0778,6.166,5.76,1111122 
DISL,ioos:station:DISL:DISL:1,2008-10-03T14:30:00Z,30.2513,-88.0778,6.09,6.2,1111122 
DISL,ioos:station:DISL:DISL:1,2008-10-03T15:00:00Z,30.2513,-88.0778,6.02,6.37,1111122 
DISL,ioos:station:DISL:DISL:1,2008-10-03T15:30:00Z,30.2513,-88.0778,5.957,6.67,1111122 
DISL,ioos:station:DISL:DISL:1,2008-10-03T16:00:00Z,30.2513,-88.0778,5.901,7.01,1111122 
DISL,ioos:station:DISL:DISL:1,2008-10-03T16:30:00Z,30.2513,-88.0778,5.883,7.2,1111122 
DISL,ioos:station:DISL:DISL:1,2008-10-03T17:00:00Z,30.2513,-88.0778,5.866,7.47,1111122 
DISL,ioos:station:DISL:DISL:1,2008-10-03T17:30:00Z,30.2513,-88.0778,5.886,7.33,1111122 
DISL,ioos:station:DISL:DISL:1,2008-10-03T18:00:00Z,30.2513,-88.0778,5.873,7.47,1111122 
DISL,ioos:station:DISL:DISL:1,2008-10-03T18:30:00Z,30.2513,-88.0778,5.858,7.23,1111122 
DISL,ioos:station:DISL:DISL:1,2008-10-03T19:00:00Z,30.2513,-88.0778,5.914,7.28,1111122 
DISL,ioos:station:DISL:DISL:1,2008-10-03T19:30:00Z,30.2513,-88.0778,5.918,7.4,1111122 
DISL,ioos:station:DISL:DISL:1,2008-10-03T20:00:00Z,30.2513,-88.0778,5.917,7.29,1111122 
DISL,ioos:station:DISL:DISL:1,2008-10-03T20:30:00Z,30.2513,-88.0778,5.989,7.11,1111122 
DISL,ioos:station:DISL:DISL:1,2008-10-03T21:00:00Z,30.2513,-88.0778,6.014,7.46,1111122 
DISL,ioos:station:DISL:DISL:1,2008-10-03T21:30:00Z,30.2513,-88.0778,6.114,7.4,1111122 
DISL,ioos:station:DISL:DISL:1,2008-10-03T22:00:00Z,30.2513,-88.0778,6.179,7.35,1111122 
DISL,ioos:station:DISL:DISL:1,2008-10-03T22:30:00Z,30.2513,-88.0778,6.27,7.55,1111122 
DISL,ioos:station:DISL:DISL:1,2008-10-03T23:00:00Z,30.2513,-88.0778,6.365,7.28,1111122 
DISL,ioos:station:DISL:DISL:1,2008-10-03T23:30:00Z,30.2513,-88.0778,6.381,7.32,1111122 
DISL,ioos:station:DISL:DISL:1,2008-10-04T00:00:00Z,30.2513,-88.0778,6.649,6.65,1111122 
DISL,ioos:station:DISL:DISL:1,2008-10-04T00:30:00Z,30.2513,-88.0778,6.655,7.4,1111122 
DISL,ioos:station:DISL:DISL:1,2008-10-04T01:00:00Z,30.2513,-88.0778,6.75,7.31,1111122 
DISL,ioos:station:DISL:DISL:1,2008-10-04T01:30:00Z,30.2513,-88.0778,6.811,7.17,1111122 
DISL,ioos:station:DISL:DISL:1,2008-10-04T02:00:00Z,30.2513,-88.0778,6.896,7.16,1111122 
DISL,ioos:station:DISL:DISL:1,2008-10-04T02:30:00Z,30.2513,-88.0778,6.951,7.14,1111122 
DISL,ioos:station:DISL:DISL:1,2008-10-04T03:00:00Z,30.2513,-88.0778,7.07,7.09,1111122 
DISL,ioos:station:DISL:DISL:1,2008-10-04T03:30:00Z,30.2513,-88.0778,7.14,6.97,1111122 
DISL,ioos:station:DISL:DISL:1,2008-10-04T04:00:00Z,30.2513,-88.0778,7.13,7.02,1111122 
DISL,ioos:station:DISL:DISL:1,2008-10-04T04:30:00Z,30.2513,-88.0778,7.2,6.94,1111122 
DISL,ioos:station:DISL:DISL:1,2008-10-04T05:00:00Z,30.2513,-88.0778,7.22,6.86,1111122 
DISL,ioos:station:DISL:DISL:1,2008-10-04T05:30:00Z,30.2513,-88.0778,7.2,6.73,1111122 
DISL,ioos:station:DISL:DISL:1,2008-10-04T06:00:00Z,30.2513,-88.0778,7.52,6.61,1111122 
DISL,ioos:station:DISL:DISL:1,2008-10-04T06:30:00Z,30.2513,-88.0778,7.23,6.66,1111122 
DISL,ioos:station:DISL:DISL:1,2008-10-04T07:00:00Z,30.2513,-88.0778,7.09,6.59,1111122 
DISL,ioos:station:DISL:DISL:1,2008-10-04T07:30:00Z,30.2513,-88.0778,7.11,6.61,1111122 
DISL,ioos:station:DISL:DISL:1,2008-10-04T08:00:00Z,30.2513,-88.0778,7.01,6.47,1111122 
DISL,ioos:station:DISL:DISL:1,2008-10-04T08:30:00Z,30.2513,-88.0778,6.916,6.53,1111122 
DISL,ioos:station:DISL:DISL:1,2008-10-04T09:00:00Z,30.2513,-88.0778,6.859,6.48,1111122 
DISL,ioos:station:DISL:DISL:1,2008-10-04T09:30:00Z,30.2513,-88.0778,6.769,6.4,1111122 
DISL,ioos:station:DISL:DISL:1,2008-10-04T10:00:00Z,30.2513,-88.0778,6.677,6.3,1111122 
DISL,ioos:station:DISL:DISL:1,2008-10-04T10:30:00Z,30.2513,-88.0778,6.552,5.94,1111122 
DISL,ioos:station:DISL:DISL:1,2008-10-04T11:00:00Z,30.2513,-88.0778,6.463,5.91,1111122 
DISL,ioos:station:DISL:DISL:1,2008-10-04T11:30:00Z,30.2513,-88.0778,6.376,5.47,1111122 
DISL,ioos:station:DISL:DISL:1,2008-10-04T12:00:00Z,30.2513,-88.0778,6.315,5.43,1111122 
DISL,ioos:station:DISL:DISL:1,2008-10-04T12:30:00Z,30.2513,-88.0778,6.241,5.34,1111122 
DISL,ioos:station:DISL:DISL:1,2008-10-04T13:00:00Z,30.2513,-88.0778,6.171,5.26,1111122 
DISL,ioos:station:DISL:DISL:1,2008-10-04T13:30:00Z,30.2513,-88.0778,6.059,5.16,1111122 
DISL,ioos:station:DISL:DISL:1,2008-10-04T14:00:00Z,30.2513,-88.0778,5.991,5.25,1111122 
DISL,ioos:station:DISL:DISL:1,2008-10-04T14:30:00Z,30.2513,-88.0778,5.885,6.25,1111122 
DISL,ioos:station:DISL:DISL:1,2008-10-04T15:00:00Z,30.2513,-88.0778,5.821,6.78,1111122 
DISL,ioos:station:DISL:DISL:1,2008-10-04T15:30:00Z,30.2513,-88.0778,5.786,7.02,1111122 
DISL,ioos:station:DISL:DISL:1,2008-10-04T16:00:00Z,30.2513,-88.0778,5.734,7.1,1111122 
DISL,ioos:station:DISL:DISL:1,2008-10-04T16:30:00Z,30.2513,-88.0778,5.658,7.24,1111122 
DISL,ioos:station:DISL:DISL:1,2008-10-04T17:00:00Z,30.2513,-88.0778,5.659,7.12,1111122 
DISL,ioos:station:DISL:DISL:1,2008-10-04T17:30:00Z,30.2513,-88.0778,5.621,7.15,1111122 
DISL,ioos:station:DISL:DISL:1,2008-10-04T18:00:00Z,30.2513,-88.0778,5.641,7.15,1111122 
DISL,ioos:station:DISL:DISL:1,2008-10-04T18:30:00Z,30.2513,-88.0778,5.652,7.3,1111122 
DISL,ioos:station:DISL:DISL:1,2008-10-04T19:00:00Z,30.2513,-88.0778,5.696,7.37,1111122 
DISL,ioos:station:DISL:DISL:1,2008-10-04T19:30:00Z,30.2513,-88.0778,5.69,7.03,1111122 
DISL,ioos:station:DISL:DISL:1,2008-10-04T20:00:00Z,30.2513,-88.0778,5.717,7.2,1111122 
DISL,ioos:station:DISL:DISL:1,2008-10-04T20:30:00Z,30.2513,-88.0778,5.753,7.01,1111122 
DISL,ioos:station:DISL:DISL:1,2008-10-04T21:00:00Z,30.2513,-88.0778,5.767,6.87,1111122 
DISL,ioos:station:DISL:DISL:1,2008-10-04T21:30:00Z,30.2513,-88.0778,5.83,6.54,1111122 
DISL,ioos:station:DISL:DISL:1,2008-10-04T22:00:00Z,30.2513,-88.0778,5.872,6.99,1111122 
DISL,ioos:station:DISL:DISL:1,2008-10-04T22:30:00Z,30.2513,-88.0778,5.924,6.71,1111122 
DISL,ioos:station:DISL:DISL:1,2008-10-04T23:00:00Z,30.2513,-88.0778,6.049,7.07,1111122 
DISL,ioos:station:DISL:DISL:1,2008-10-04T23:30:00Z,30.2513,-88.0778,6.068,6.64,1111122 
DISL,ioos:station:DISL:DISL:1,2008-10-05T00:00:00Z,30.2513,-88.0778,6.198,6.41,1111122 
DISL,ioos:station:DISL:DISL:1,2008-10-05T00:30:00Z,30.2513,-88.0778,6.283,6.9,1111122 
DISL,ioos:station:DISL:DISL:1,2008-10-05T01:00:00Z,30.2513,-88.0778,6.426,6.48,1111122 
DISL,ioos:station:DISL:DISL:1,2008-10-05T01:30:00Z,30.2513,-88.0778,6.558,6.96,1111122 
DISL,ioos:station:DISL:DISL:1,2008-10-05T02:00:00Z,30.2513,-88.0778,6.697,6.77,1111122 
DISL,ioos:station:DISL:DISL:1,2008-10-05T02:30:00Z,30.2513,-88.0778,6.814,6.57,1111122 
DISL,ioos:station:DISL:DISL:1,2008-10-05T03:00:00Z,30.2513,-88.0778,6.868,6.91,1111122 
DISL,ioos:station:DISL:DISL:1,2008-10-05T03:30:00Z,30.2513,-88.0778,6.942,6.73,1111122 
DISL,ioos:station:DISL:DISL:1,2008-10-05T04:00:00Z,30.2513,-88.0778,7.05,6.35,1111122 
DISL,ioos:station:DISL:DISL:1,2008-10-05T04:30:00Z,30.2513,-88.0778,7.16,6.05,1111122 
DISL,ioos:station:DISL:DISL:1,2008-10-05T05:00:00Z,30.2513,-88.0778,7.21,5.57,1111122 
DISL,ioos:station:DISL:DISL:1,2008-10-05T05:30:00Z,30.2513,-88.0778,7.29,5.77,1111122 
DISL,ioos:station:DISL:DISL:1,2008-10-05T06:00:00Z,30.2513,-88.0778,7.4,6.0,1111122 
DISL,ioos:station:DISL:DISL:1,2008-10-05T06:30:00Z,30.2513,-88.0778,7.42,6.43,1111122 
DISL,ioos:station:DISL:DISL:1,2008-10-05T07:00:00Z,30.2513,-88.0778,7.43,6.44,1111122 
DISL,ioos:station:DISL:DISL:1,2008-10-05T07:30:00Z,30.2513,-88.0778,7.39,6.39,1111122 
DISL,ioos:station:DISL:DISL:1,2008-10-05T08:00:00Z,30.2513,-88.0778,7.36,6.22,1111122 
DISL,ioos:station:DISL:DISL:1,2008-10-05T08:30:00Z,30.2513,-88.0778,7.31,6.38,1111122 
DISL,ioos:station:DISL:DISL:1,2008-10-05T09:00:00Z,30.2513,-88.0778,7.26,6.35,1111122 
DISL,ioos:station:DISL:DISL:1,2008-10-05T09:30:00Z,30.2513,-88.0778,7.17,6.31,1111122 
DISL,ioos:station:DISL:DISL:1,2008-10-05T10:00:00Z,30.2513,-88.0778,7.15,6.8,1111122 
DISL,ioos:station:DISL:DISL:1,2008-10-05T10:30:00Z,30.2513,-88.0778,7.04,7.26,1111122 
DISL,ioos:station:DISL:DISL:1,2008-10-05T11:00:00Z,30.2513,-88.0778,6.994,6.74,1111122 
DISL,ioos:station:DISL:DISL:1,2008-10-05T11:30:00Z,30.2513,-88.0778,6.92,6.45,1111122 
DISL,ioos:station:DISL:DISL:1,2008-10-05T12:00:00Z,30.2513,-88.0778,6.853,6.23,1111122 
DISL,ioos:station:DISL:DISL:1,2008-10-05T12:30:00Z,30.2513,-88.0778,6.805,6.3,1111122 
DISL,ioos:station:DISL:DISL:1,2008-10-05T13:00:00Z,30.2513,-88.0778,6.731,6.4,1111122 
DISL,ioos:station:DISL:DISL:1,2008-10-05T13:30:00Z,30.2513,-88.0778,6.645,6.22,1111122 
DISL,ioos:station:DISL:DISL:1,2008-10-05T14:00:00Z,30.2513,-88.0778,6.466,6.28,1111122 
DISL,ioos:station:DISL:DISL:1,2008-10-05T14:30:00Z,30.2513,-88.0778,6.427,6.31,1111122 
DISL,ioos:station:DISL:DISL:1,2008-10-05T15:00:00Z,30.2513,-88.0778,6.338,6.43,1111122 
DISL,ioos:station:DISL:DISL:1,2008-10-05T15:30:00Z,30.2513,-88.0778,6.251,6.49,1111122 
DISL,ioos:station:DISL:DISL:1,2008-10-05T16:00:00Z,30.2513,-88.0778,6.173,6.49,1111122 
DISL,ioos:station:DISL:DISL:1,2008-10-05T16:30:00Z,30.2513,-88.0778,6.192,6.58,1111122 
DISL,ioos:station:DISL:DISL:1,2008-10-05T17:00:00Z,30.2513,-88.0778,6.129,6.83,1111122 
DISL,ioos:station:DISL:DISL:1,2008-10-05T17:30:00Z,30.2513,-88.0778,6.119,6.9,1111122 
DISL,ioos:station:DISL:DISL:1,2008-10-05T18:00:00Z,30.2513,-88.0778,6.065,6.93,1111122 
DISL,ioos:station:DISL:DISL:1,2008-10-05T18:30:00Z,30.2513,-88.0778,6.054,6.99,1111122 
DISL,ioos:station:DISL:DISL:1,2008-10-05T19:00:00Z,30.2513,-88.0778,6.036,7.0,1111122 
DISL,ioos:station:DISL:DISL:1,2008-10-05T19:30:00Z,30.2513,-88.0778,6.026,7.0,1111122 
DISL,ioos:station:DISL:DISL:1,2008-10-05T20:00:00Z,30.2513,-88.0778,6.023,7.04,1111122 
DISL,ioos:station:DISL:DISL:1,2008-10-05T20:30:00Z,30.2513,-88.0778,6.034,6.89,1111122 
DISL,ioos:station:DISL:DISL:1,2008-10-05T21:00:00Z,30.2513,-88.0778,6.07,6.93,1111122 
DISL,ioos:station:DISL:DISL:1,2008-10-05T21:30:00Z,30.2513,-88.0778,6.107,6.91,1111122 
DISL,ioos:station:DISL:DISL:1,2008-10-05T22:00:00Z,30.2513,-88.0778,6.184,6.84,1111122 
DISL,ioos:station:DISL:DISL:1,2008-10-05T22:30:00Z,30.2513,-88.0778,6.2,6.72,1111122 
DISL,ioos:station:DISL:DISL:1,2008-10-05T23:00:00Z,30.2513,-88.0778,6.281,6.55,1111122 
DISL,ioos:station:DISL:DISL:1,2008-10-05T23:30:00Z,30.2513,-88.0778,6.398,6.31,1111122 
DISL,ioos:station:DISL:DISL:1,2008-10-06T00:00:00Z,30.2513,-88.0778,6.534,6.27,1111122 
DISL,ioos:station:DISL:DISL:1,2008-10-06T00:30:00Z,30.2513,-88.0778,6.597,5.9,1111122 
DISL,ioos:station:DISL:DISL:1,2008-10-06T01:00:00Z,30.2513,-88.0778,6.683,6.26,1111122 
DISL,ioos:station:DISL:DISL:1,2008-10-06T01:30:00Z,30.2513,-88.0778,6.85,6.09,1111122 
DISL,ioos:station:DISL:DISL:1,2008-10-06T02:00:00Z,30.2513,-88.0778,6.911,6.09,1111122 
DISL,ioos:station:DISL:DISL:1,2008-10-06T02:30:00Z,30.2513,-88.0778,6.994,6.37,1111122 
DISL,ioos:station:DISL:DISL:1,2008-10-06T03:00:00Z,30.2513,-88.0778,7.08,6.27,1111122 
DISL,ioos:station:DISL:DISL:1,2008-10-06T03:30:00Z,30.2513,-88.0778,7.13,6.17,1111122 
DISL,ioos:station:DISL:DISL:1,2008-10-06T04:00:00Z,30.2513,-88.0778,7.3,6.33,1111122 
DISL,ioos:station:DISL:DISL:1,2008-10-06T04:30:00Z,30.2513,-88.0778,7.34,6.39,1111122 
DISL,ioos:station:DISL:DISL:1,2008-10-06T05:00:00Z,30.2513,-88.0778,7.37,6.13,1111122 
DISL,ioos:station:DISL:DISL:1,2008-10-06T05:30:00Z,30.2513,-88.0778,7.49,6.05,1111122 
DISL,ioos:station:DISL:DISL:1,2008-10-06T06:00:00Z,30.2513,-88.0778,7.54,5.89,1111122 
DISL,ioos:station:DISL:DISL:1,2008-10-06T06:30:00Z,30.2513,-88.0778,7.61,5.86,1111122 
DISL,ioos:station:DISL:DISL:1,2008-10-06T07:00:00Z,30.2513,-88.0778,7.62,5.84,1111122 
DISL,ioos:station:DISL:DISL:1,2008-10-06T07:30:00Z,30.2513,-88.0778,7.67,5.71,1111122 
DISL,ioos:station:DISL:DISL:1,2008-10-06T08:00:00Z,30.2513,-88.0778,7.69,5.59,1111122 
DISL,ioos:station:DISL:DISL:1,2008-10-06T08:30:00Z,30.2513,-88.0778,7.69,5.98,1111122 
DISL,ioos:station:DISL:DISL:1,2008-10-06T09:00:00Z,30.2513,-88.0778,7.7,6.03,1111122 
DISL,ioos:station:DISL:DISL:1,2008-10-06T09:30:00Z,30.2513,-88.0778,7.64,5.97,1111122 
DISL,ioos:station:DISL:DISL:1,2008-10-06T10:00:00Z,30.2513,-88.0778,7.49,5.98,1111122 
DISL,ioos:station:DISL:DISL:1,2008-10-06T10:30:00Z,30.2513,-88.0778,7.56,6.05,1111122 
DISL,ioos:station:DISL:DISL:1,2008-10-06T11:00:00Z,30.2513,-88.0778,7.51,6.06,1111122 
DISL,ioos:station:DISL:DISL:1,2008-10-06T11:30:00Z,30.2513,-88.0778,7.43,6.09,1111122 
DISL,ioos:station:DISL:DISL:1,2008-10-06T12:00:00Z,30.2513,-88.0778,7.46,6.09,1111122 
DISL,ioos:station:DISL:DISL:1,2008-10-06T12:30:00Z,30.2513,-88.0778,7.3,6.11,1111122 
DISL,ioos:station:DISL:DISL:1,2008-10-06T13:00:00Z,30.2513,-88.0778,7.27,6.17,1111122 
DISL,ioos:station:DISL:DISL:1,2008-10-06T13:30:00Z,30.2513,-88.0778,7.14,6.18,1111122 
DISL,ioos:station:DISL:DISL:1,2008-10-06T14:00:00Z,30.2513,-88.0778,7.1,6.17,1111122 
DISL,ioos:station:DISL:DISL:1,2008-10-06T14:30:00Z,30.2513,-88.0778,7.09,6.23,1111122 
DISL,ioos:station:DISL:DISL:1,2008-10-06T15:00:00Z,30.2513,-88.0778,7.02,6.35,1111122 
DISL,ioos:station:DISL:DISL:1,2008-10-06T15:30:00Z,30.2513,-88.0778,6.916,6.42,1111122 
DISL,ioos:station:DISL:DISL:1,2008-10-06T16:00:00Z,30.2513,-88.0778,6.847,6.52,1111122 